• In Deutschland
  • Länderverzeichnis
  • Für 7 Tage
  • Wassertemperatur
  • Satellitenkarten
  • Wetterkarte
  • Widgets
  • user-avatar
    Anmelden

    Stündliche Wetter Alto Araguaia

    Heute, 16 Oktober, Dienstag

    Zeit Temperatur Niederschläge Wind Luftdruck Luftfeuchtigkeit
    00:00 +23°C° 0 mm 0 m/S 700 mmHg 80%
    01:00 +23°C° 0 mm 0 m/S 700 mmHg 81%
    02:00 +23°C° 0 mm 0 m/S 699 mmHg 81%
    03:00 +25°C° 0 mm 1 m/S 699 mmHg 81%
    04:00 +25°C° 0 mm 1 m/S 699 mmHg 82%
    05:00 +25°C° 0 mm 1 m/S 700 mmHg 82%
    06:00 +26°C° 0.1 mm 1 m/S 700 mmHg 75%
    07:00 +28°C° 0.1 mm 1 m/S 701 mmHg 68%
    08:00 +30°C° 0.1 mm 1 m/S 702 mmHg 61%
    09:00 +32°C° 0.3 mm 1 m/S 702 mmHg 55%
    10:00 +33°C° 0.3 mm 1 m/S 701 mmHg 49%
    11:00 +36°C° 0.3 mm 2 m/S 701 mmHg 43%
    12:00 +34°C° 0.2 mm 1 m/S 701 mmHg 46%
    13:00 +34°C° 0.2 mm 1 m/S 700 mmHg 48%
    14:00 +33°C° 0.2 mm 1 m/S 699 mmHg 50%
    15:00 +32°C° 0.1 mm 1 m/S 699 mmHg 53%
    16:00 +31°C° 0.1 mm 1 m/S 699 mmHg 56%
    17:00 +31°C° 0.1 mm 1 m/S 699 mmHg 60%
    18:00 +30°C° 0.4 mm 1 m/S 699 mmHg 63%
    19:00 +29°C° 0.4 mm 1 m/S 699 mmHg 67%
    20:00 +28°C° 0.4 mm 1 m/S 699 mmHg 71%
    21:00 +27°C° 0 mm 1 m/S 699 mmHg 72%
    22:00 +27°C° 0 mm 1 m/S 700 mmHg 73%
    23:00 +27°C° 0 mm 1 m/S 700 mmHg 74%

    Morgen, 17 Oktober, Mittwoch

    Zeit Temperatur Niederschläge Wind Luftdruck Luftfeuchtigkeit
    00:00 +26°C° 1.9 mm 1 m/S 700 mmHg 78%
    01:00 +25°C° 1.9 mm 1 m/S 699 mmHg 83%
    02:00 +25°C° 1.9 mm 1 m/S 699 mmHg 87%
    03:00 +25°C° 0.7 mm 1 m/S 699 mmHg 86%
    04:00 +25°C° 0.7 mm 1 m/S 700 mmHg 86%
    05:00 +25°C° 0.7 mm 1 m/S 700 mmHg 85%
    06:00 +26°C° 0 mm 2 m/S 701 mmHg 81%
    07:00 +27°C° 0 mm 2 m/S 701 mmHg 77%
    08:00 +28°C° 0 mm 3 m/S 702 mmHg 73%
    09:00 +30°C° 0.1 mm 3 m/S 702 mmHg 66%
    10:00 +31°C° 0.1 mm 3 m/S 702 mmHg 59%
    11:00 +34°C° 0.1 mm 3 m/S 702 mmHg 51%
    12:00 +34°C° 0.3 mm 2 m/S 701 mmHg 49%
    13:00 +35°C° 0.3 mm 2 m/S 700 mmHg 47%
    14:00 +35°C° 0.3 mm 2 m/S 700 mmHg 45%
    15:00 +33°C° 0 mm 1 m/S 699 mmHg 48%
    16:00 +33°C° 0 mm 1 m/S 699 mmHg 50%
    17:00 +32°C° 0 mm 1 m/S 699 mmHg 53%
    18:00 +31°C° 0.4 mm 1 m/S 699 mmHg 56%
    19:00 +30°C° 0.4 mm 1 m/S 700 mmHg 60%
    20:00 +28°C° 0.4 mm 2 m/S 700 mmHg 63%
    21:00 +28°C° 0.2 mm 2 m/S 700 mmHg 67%
    22:00 +27°C° 0.2 mm 2 m/S 700 mmHg 71%
    23:00 +26°C° 0.2 mm 2 m/S 701 mmHg 75%

    übermorgen, 18 Oktober, Donnerstag

    Zeit Temperatur Niederschläge Wind Luftdruck Luftfeuchtigkeit
    00:00 +26°C° 0.4 mm 2 m/S 700 mmHg 79%
    01:00 +26°C° 0.4 mm 2 m/S 700 mmHg 82%
    02:00 +25°C° 0.4 mm 2 m/S 699 mmHg 85%
    03:00 +25°C° 0 mm 2 m/S 700 mmHg 86%
    04:00 +25°C° 0 mm 2 m/S 700 mmHg 88%
    05:00 +24°C° 0 mm 2 m/S 700 mmHg 89%
    06:00 +26°C° 0 mm 3 m/S 701 mmHg 82%
    07:00 +28°C° 0 mm 3 m/S 702 mmHg 76%
    08:00 +29°C° 0 mm 4 m/S 702 mmHg 69%
    09:00 +32°C° 0 mm 4 m/S 702 mmHg 62%
    10:00 +33°C° 0 mm 4 m/S 702 mmHg 55%
    11:00 +35°C° 0 mm 4 m/S 702 mmHg 48%
    12:00 +35°C° 0 mm 4 m/S 701 mmHg 45%
    13:00 +36°C° 0 mm 3 m/S 700 mmHg 42%
    14:00 +37°C° 0 mm 2 m/S 699 mmHg 38%
    15:00 +36°C° 0 mm 2 m/S 699 mmHg 41%
    16:00 +34°C° 0 mm 1 m/S 699 mmHg 44%
    17:00 +33°C° 0 mm 1 m/S 699 mmHg 47%
    18:00 +32°C° 0 mm 1 m/S 699 mmHg 49%
    19:00 +31°C° 0 mm 1 m/S 700 mmHg 51%
    20:00 +30°C° 0 mm 1 m/S 700 mmHg 52%
    21:00 +29°C° 0.4 mm 1 m/S 700 mmHg 58%
    22:00 +28°C° 0.4 mm 1 m/S 699 mmHg 63%
    23:00 +27°C° 0.4 mm 1 m/S 699 mmHg 68%

    19 Oktober, Freitag

    Zeit Temperatur Niederschläge Wind Luftdruck Luftfeuchtigkeit
    00:00 +27°C° 0.1 mm 1 m/S 699 mmHg 70%
    01:00 +26°C° 0.1 mm 1 m/S 699 mmHg 72%
    02:00 +26°C° 0.1 mm 1 m/S 699 mmHg 74%
    03:00 +25°C° 0.5 mm 1 m/S 699 mmHg 76%
    04:00 +25°C° 0.5 mm 2 m/S 699 mmHg 77%
    05:00 +25°C° 0.5 mm 2 m/S 699 mmHg 79%
    06:00 +26°C° 0 mm 2 m/S 700 mmHg 74%
    07:00 +28°C° 0 mm 3 m/S 701 mmHg 69%
    08:00 +30°C° 0 mm 3 m/S 701 mmHg 63%
    09:00 +31°C° 0.1 mm 3 m/S 701 mmHg 56%
    10:00 +34°C° 0.1 mm 3 m/S 701 mmHg 49%
    11:00 +36°C° 0.1 mm 2 m/S 701 mmHg 42%
    12:00 +36°C° 0 mm 2 m/S 700 mmHg 42%
    13:00 +36°C° 0 mm 2 m/S 700 mmHg 42%
    14:00 +35°C° 0 mm 1 m/S 699 mmHg 42%
    15:00 +33°C° 1.3 mm 1 m/S 699 mmHg 50%
    16:00 +31°C° 1.3 mm 2 m/S 698 mmHg 58%
    17:00 +30°C° 1.3 mm 2 m/S 698 mmHg 66%
    18:00 +28°C° 13.8 mm 2 m/S 698 mmHg 74%
    19:00 +27°C° 13.8 mm 3 m/S 699 mmHg 82%
    20:00 +26°C° 13.8 mm 3 m/S 699 mmHg 91%
    21:00 +26°C° 5.1 mm 3 m/S 699 mmHg 90%
    22:00 +26°C° 5.1 mm 2 m/S 700 mmHg 90%
    23:00 +25°C° 5.1 mm 2 m/S 700 mmHg 89%

    20 Oktober, Samstag

    Zeit Temperatur Niederschläge Wind Luftdruck Luftfeuchtigkeit
    00:00 +25°C° 0.3 mm 2 m/S 700 mmHg 89%
    01:00 +25°C° 0.3 mm 2 m/S 699 mmHg 89%
    02:00 +25°C° 0.3 mm 2 m/S 699 mmHg 89%
    03:00 +25°C° 0 mm 2 m/S 699 mmHg 88%
    04:00 +25°C° 0 mm 2 m/S 699 mmHg 87%
    05:00 +24°C° 0 mm 2 m/S 699 mmHg 86%
    06:00 +26°C° 0 mm 2 m/S 700 mmHg 82%
    07:00 +27°C° 0 mm 2 m/S 700 mmHg 77%
    08:00 +28°C° 0 mm 3 m/S 701 mmHg 72%
    09:00 +30°C° 0 mm 2 m/S 701 mmHg 65%
    10:00 +31°C° 0 mm 2 m/S 701 mmHg 58%
    11:00 +34°C° 0 mm 2 m/S 701 mmHg 51%
    12:00 +33°C° 0 mm 1 m/S 700 mmHg 50%
    13:00 +33°C° 0 mm 1 m/S 699 mmHg 48%
    14:00 +32°C° 0 mm 0 m/S 699 mmHg 47%
    15:00 +31°C° 0.1 mm 0 m/S 699 mmHg 51%
    16:00 +32°C° 0.1 mm 1 m/S 699 mmHg 55%
    17:00 +31°C° 0.1 mm 1 m/S 699 mmHg 58%
    18:00 +30°C° 0.3 mm 1 m/S 699 mmHg 63%
    19:00 +29°C° 0.3 mm 2 m/S 699 mmHg 67%
    20:00 +27°C° 0.3 mm 2 m/S 699 mmHg 71%
    21:00 +27°C° 0.3 mm 3 m/S 699 mmHg 75%
    22:00 +26°C° 0.3 mm 3 m/S 699 mmHg 78%
    23:00 +25°C° 0.3 mm 3 m/S 699 mmHg 82%

    21 Oktober, Sonntag

    Zeit Temperatur Niederschläge Wind Luftdruck Luftfeuchtigkeit
    00:00 +25°C° 0 mm 3 m/S 698 mmHg 83%
    01:00 +25°C° 0 mm 3 m/S 698 mmHg 84%
    02:00 +24°C° 0 mm 3 m/S 698 mmHg 85%
    03:00 +24°C° 0 mm 3 m/S 698 mmHg 85%
    04:00 +24°C° 0 mm 3 m/S 699 mmHg 86%
    05:00 +24°C° 0 mm 3 m/S 699 mmHg 86%
    06:00 +25°C° 0 mm 3 m/S 700 mmHg 80%
    07:00 +27°C° 0 mm 3 m/S 700 mmHg 73%
    08:00 +28°C° 0 mm 4 m/S 701 mmHg 67%
    09:00 +30°C° 0 mm 3 m/S 701 mmHg 61%
    10:00 +33°C° 0 mm 3 m/S 701 mmHg 54%
    11:00 +34°C° 0 mm 2 m/S 701 mmHg 48%
    12:00 +34°C° 0.1 mm 2 m/S 700 mmHg 47%
    13:00 +34°C° 0.1 mm 1 m/S 699 mmHg 45%
    14:00 +34°C° 0.1 mm 1 m/S 699 mmHg 44%
    15:00 +33°C° 0.2 mm 1 m/S 698 mmHg 48%
    16:00 +32°C° 0.2 mm 1 m/S 698 mmHg 53%
    17:00 +31°C° 0.2 mm 1 m/S 698 mmHg 57%
    18:00 +30°C° 0.3 mm 2 m/S 698 mmHg 62%
    19:00 +28°C° 0.3 mm 3 m/S 698 mmHg 67%
    20:00 +27°C° 0.3 mm 4 m/S 699 mmHg 72%
    21:00 +26°C° 0.1 mm 3 m/S 699 mmHg 75%
    22:00 +26°C° 0.1 mm 3 m/S 699 mmHg 77%
    23:00 +25°C° 0.1 mm 3 m/S 699 mmHg 79%
    Mehr zeigen